TimeCDT,TemperatureF,Dew PointF,Humidity,Sea Level PressureIn,VisibilityMPH,Wind Direction,Wind SpeedMPH,Gust SpeedMPH,PrecipitationIn,Events,Conditions,WindDirDegrees,DateUTC
12:02 AM,37.4,26.6,65,30.39,10.0,North,9.2,-,N/A,,Clear,360,2013-05-03 05:02:00
12:21 AM,35.6,26.6,70,30.39,10.0,North,9.2,-,N/A,,Clear,360,2013-05-03 05:21:00
12:42 AM,35.6,26.6,70,30.39,10.0,North,8.1,-,N/A,,Clear,360,2013-05-03 05:42:00
1:01 AM,35.6,26.6,70,30.39,10.0,North,8.1,-,N/A,,Clear,360,2013-05-03 06:01:00
1:22 AM,35.6,26.6,70,30.38,10.0,North,8.1,-,N/A,,Clear,360,2013-05-03 06:22:00
1:41 AM,35.6,26.6,70,30.37,10.0,North,8.1,-,N/A,,Clear,360,2013-05-03 06:41:00
2:01 AM,35.6,26.6,70,30.35,10.0,North,9.2,-,N/A,,Clear,360,2013-05-03 07:01:00
2:22 AM,35.6,26.6,70,30.36,10.0,North,8.1,-,N/A,,Clear,350,2013-05-03 07:22:00
2:41 AM,35.6,24.8,65,30.35,10.0,North,10.4,-,N/A,,Clear,360,2013-05-03 07:41:00
3:02 AM,33.8,24.8,70,30.35,10.0,North,9.2,-,N/A,,Scattered Clouds,360,2013-05-03 08:02:00
3:22 AM,33.8,24.8,70,30.34,10.0,North,10.4,-,N/A,,Scattered Clouds,360,2013-05-03 08:22:00
3:41 AM,33.8,24.8,70,30.33,10.0,North,9.2,-,N/A,,Clear,10,2013-05-03 08:41:00
4:02 AM,33.8,24.8,70,30.32,10.0,North,10.4,-,N/A,,Clear,10,2013-05-03 09:02:00
4:21 AM,33.8,24.8,70,30.32,10.0,North,9.2,-,N/A,,Clear,360,2013-05-03 09:21:00
4:42 AM,33.8,26.6,75,30.31,10.0,North,8.1,-,N/A,,Clear,360,2013-05-03 09:42:00
5:01 AM,33.8,26.6,75,30.31,10.0,North,9.2,-,N/A,,Clear,350,2013-05-03 10:01:00
5:21 AM,33.8,26.6,75,30.31,10.0,North,9.2,-,N/A,,Scattered Clouds,360,2013-05-03 10:21:00
5:42 AM,33.8,26.6,75,30.30,10.0,North,9.2,-,N/A,,Mostly Cloudy,360,2013-05-03 10:42:00
6:01 AM,32.0,26.6,80,30.30,10.0,North,10.4,-,N/A,,Overcast,10,2013-05-03 11:01:00
6:22 AM,32.0,26.6,80,30.29,10.0,North,11.5,-,N/A,,Overcast,360,2013-05-03 11:22:00
6:41 AM,32.0,26.6,80,30.29,7.0,North,11.5,-,N/A,Snow,Light Snow,10,2013-05-03 11:41:00
7:02 AM,30.2,28.4,93,30.29,1.2,North,9.2,-,N/A,Snow,Light Snow,10,2013-05-03 12:02:00
7:21 AM,30.2,28.4,93,30.29,2.0,North,11.5,-,N/A,Snow,Light Snow,360,2013-05-03 12:21:00
7:42 AM,30.2,28.4,93,30.29,2.0,North,10.4,-,N/A,Snow,Light Snow,360,2013-05-03 12:42:00
8:01 AM,30.2,28.4,93,30.29,1.8,North,9.2,-,N/A,Snow,Light Snow,350,2013-05-03 13:01:00
8:22 AM,30.2,28.4,93,30.28,2.5,North,9.2,-,N/A,Snow,Light Snow,360,2013-05-03 13:22:00
8:42 AM,30.2,28.4,93,30.27,2.0,North,9.2,-,N/A,Snow,Light Snow,360,2013-05-03 13:42:00
9:01 AM,30.2,28.4,93,30.27,1.8,North,10.4,-,N/A,Snow,Light Snow,360,2013-05-03 14:01:00
9:22 AM,30.2,28.4,93,30.26,2.5,North,9.2,17.3,N/A,Snow,Light Snow,360,2013-05-03 14:22:00
9:41 AM,30.2,28.4,93,30.26,2.5,North,12.7,18.4,N/A,Snow,Light Snow,350,2013-05-03 14:41:00
10:02 AM,30.2,28.4,93,30.25,2.5,NNW,10.4,-,N/A,Snow,Light Snow,340,2013-05-03 15:02:00
10:21 AM,30.2,28.4,93,30.25,2.0,North,11.5,-,N/A,Snow,Light Snow,360,2013-05-03 15:21:00
10:41 AM,30.2,28.4,93,30.25,2.0,North,10.4,-,N/A,Snow,Light Snow,350,2013-05-03 15:41:00
11:02 AM,30.2,30.2,100,30.25,1.5,North,10.4,16.1,N/A,Snow,Light Snow,350,2013-05-03 16:02:00
11:21 AM,32.0,30.2,93,30.24,3.0,North,11.5,17.3,N/A,,Overcast,360,2013-05-03 16:21:00
11:42 AM,32.0,30.2,93,30.23,1.8,North,12.7,17.3,N/A,Snow,Light Snow,360,2013-05-03 16:42:00
12:01 PM,32.0,30.2,93,30.22,3.0,North,11.5,-,N/A,Snow,Light Snow,360,2013-05-03 17:01:00
12:21 PM,30.2,30.2,100,30.21,1.5,North,10.4,17.3,N/A,Snow,Light Snow,360,2013-05-03 17:21:00
12:42 PM,32.0,32.0,100,30.20,2.5,North,9.2,18.4,N/A,Snow,Light Snow,360,2013-05-03 17:42:00
1:01 PM,32.0,30.2,93,30.19,3.0,North,15.0,19.6,N/A,Snow,Light Snow,10,2013-05-03 18:01:00
1:22 PM,32.0,32.0,100,30.18,4.0,NNE,12.7,21.9,N/A,Snow,Light Snow,20,2013-05-03 18:22:00
2:02 PM,33.8,32.0,93,30.18,4.0,NNE,12.7,17.3,N/A,,Overcast,20,2013-05-03 19:02:00
2:22 PM,33.8,33.8,100,30.18,7.0,NNE,11.5,18.4,N/A,Rain,Light Rain,20,2013-05-03 19:22:00
2:41 PM,33.8,32.0,93,30.17,4.0,NNE,13.8,18.4,N/A,Rain,Light Rain,20,2013-05-03 19:41:00
3:02 PM,33.8,32.0,93,30.16,5.0,NNE,13.8,-,N/A,Rain,Light Rain,20,2013-05-03 20:02:00
3:21 PM,33.8,32.0,93,30.16,4.0,NNE,15.0,19.6,N/A,Rain,Light Rain,20,2013-05-03 20:21:00
3:42 PM,33.8,32.0,93,30.16,5.0,NNE,11.5,18.4,N/A,Rain,Light Rain,20,2013-05-03 20:42:00
4:01 PM,33.8,32.0,93,30.15,10.0,NNE,12.7,-,N/A,,Light Drizzle,20,2013-05-03 21:01:00
4:21 PM,33.8,32.0,93,30.14,10.0,NNE,13.8,21.9,N/A,,Light Drizzle,20,2013-05-03 21:21:00
4:42 PM,33.8,32.0,93,30.14,10.0,North,13.8,17.3,N/A,,Light Drizzle,10,2013-05-03 21:42:00
5:01 PM,33.8,30.2,87,30.15,10.0,NNE,10.4,21.9,N/A,,Overcast,20,2013-05-03 22:01:00
5:22 PM,33.8,32.0,93,30.16,10.0,North,12.7,-,N/A,Rain,Light Rain,10,2013-05-03 22:22:00
5:41 PM,33.8,30.2,87,30.16,5.0,NNE,10.4,-,N/A,Rain,Light Rain,20,2013-05-03 22:41:00
6:02 PM,33.8,30.2,87,30.15,7.0,NNE,11.5,16.1,N/A,Rain,Light Rain,30,2013-05-03 23:02:00
6:21 PM,33.8,30.2,87,30.16,10.0,NNE,12.7,17.3,N/A,,Drizzle,20,2013-05-03 23:21:00
6:42 PM,32.0,30.2,93,30.15,5.0,North,11.5,-,N/A,,Overcast,10,2013-05-03 23:42:00
7:01 PM,32.0,30.2,93,30.14,7.0,North,13.8,18.4,N/A,Rain,Light Rain,10,2013-05-04 00:01:00
7:21 PM,32.0,30.2,93,30.14,10.0,NNE,15.0,23.0,N/A,,Overcast,20,2013-05-04 00:21:00
7:42 PM,32.0,30.2,93,30.15,10.0,NNE,12.7,17.3,N/A,,Overcast,30,2013-05-04 00:42:00
8:01 PM,32.0,30.2,93,30.14,10.0,NNE,16.1,-,N/A,,Overcast,20,2013-05-04 01:01:00
8:22 PM,32.0,30.2,93,30.14,10.0,NNE,9.2,-,N/A,,Overcast,30,2013-05-04 01:22:00
8:41 PM,32.0,30.2,93,30.14,10.0,NNE,16.1,19.6,N/A,,Overcast,30,2013-05-04 01:41:00
9:02 PM,32.0,30.2,93,30.15,10.0,NNE,12.7,20.7,N/A,,Overcast,30,2013-05-04 02:02:00
9:21 PM,32.0,30.2,93,30.15,10.0,NNE,12.7,-,N/A,,Overcast,30,2013-05-04 02:21:00
9:42 PM,32.0,30.2,93,30.16,10.0,NNE,9.2,17.3,N/A,,Overcast,30,2013-05-04 02:42:00
10:01 PM,32.0,30.2,93,30.15,10.0,NNE,10.4,-,N/A,,Overcast,20,2013-05-04 03:01:00
10:22 PM,32.0,30.2,93,30.15,10.0,North,9.2,-,N/A,,Overcast,10,2013-05-04 03:22:00
10:41 PM,32.0,30.2,93,30.15,10.0,NNE,9.2,-,N/A,,Overcast,20,2013-05-04 03:41:00
11:01 PM,32.0,30.2,93,30.14,10.0,North,11.5,-,N/A,,Overcast,10,2013-05-04 04:01:00
11:22 PM,32.0,30.2,93,30.14,10.0,NNE,8.1,-,N/A,,Overcast,20,2013-05-04 04:22:00
11:41 PM,32.0,30.2,93,30.13,10.0,North,10.4,-,N/A,,Overcast,10,2013-05-04 04:41:00